Temperature
9 9 9 9 10 10 10 9 9 10 10 10 10 10 10 10 9 9 9 10 10 10 10 9 9 9 9 9 8 8 8 7 6 6 5 5 5 4 4 4 4 4 4
8 8 9 9 9 9 9 9 9 9 9 9 9 9 9 9 9 9 9 9 9 9 9 9 9 9 8 8 8 8 7 7 6 6 5 5 4 4 3 3 3 3 3
8 8 8 8 8 8 8 8 9 9 9 9 8 8 8 8 8 8 8 8 8 9 9 8 8 8 8 8 7 7 6 6 6 5 4 4 4 3 3 3 2 2 2
7 7 7 7 8 8 8 8 8 8 8 8 8 8 8 8 8 8 8 8 8 8 8 8 8 8 7 7 6 6 6 5 5 4 4 3 3 3 2 2 2 2 2
6 7 7 7 7 7 7 7 7 7 7 7 7 7 7 7 7 7 7 7 7 7 7 7 7 7 7 6 6 5 5 5 4 4 3 3 2 2 2 2 2 2 2
6 6 6 6 6 6 6 6 6 6 6 6 6 6 6 6 6 6 6 7 7 7 6 6 6 6 6 5 5 5 4 4 4 3 3 2 2 2 2 1 1 1 1
5 5 5 5 5 5 5 5 5 5 5 5 6 6 6 6 6 6 6 6 6 6 6 6 5 5 5 5 4 4 4 3 3 2 2 2 2 2 1 1 1 1 1
4 4 5 5 5 5 5 5 5 5 5 5 5 5 5 5 5 5 5 5 5 5 5 5 5 4 4 4 4 3 3 3 2 2 2 2 1 1 1 1 1 0 0
4 4 4 4 4 4 4 4 4 4 4 4 4 4 4 4 4 4 4 4 4 4 4 4 4 4 4 3 3 3 2 2 2 1 1 1 1 1 0 0 0 0 0
3 3 3 3 3 3 4 4 4 3 3 3 3 3 3 3 4 4 4 4 4 4 4 3 3 3 3 3 2 2 2 1 1 1 1 0 0 0 -0 -0 -0 -0 -0
3 3 3 3 3 3 3 3 3 3 3 3 3 3 3 3 3 3 3 3 3 3 3 3 3 2 2 2 1 1 1 1 0 0 0 -0 -0 -0 -0 -0 -1 -1 -1
2 2 3 3 3 3 2 2 2 2 2 2 2 2 2 2 2 2 3 3 3 2 2 2 2 2 1 1 1 1 0 -0 -0 -1 -1 -1 -1 -1 -1 -1 -1 -1 -1
2 2 2 2 2 2 2 2 2 2 2 2 2 2 2 2 2 2 2 2 2 2 2 1 1 1 1 0 -0 -0 -1 -1 -1 -1 -1 -1 -1 -2 -2 -2 -2 -2 -2
2 2 2 2 2 2 1 1 1 1 1 1 1 1 1 1 1 1 1 1 1 1 1 1 0 0 -0 -0 -1 -1 -1 -1 -1 -2 -2 -2 -2 -2 -2 -2 -2 -2 -2
1 1 1 1 1 1 1 1 1 0 0 1 1 1 1 1 1 1 1 1 1 1 1 0 -0 -0 -1 -1 -2 -2 -2 -2 -2 -2 -2 -3 -3 -3 -3 -3 -3 -3 -3
1 1 1 1 1 0 0 1 0 0 0 0 0 0 0 0 0 0 0 0 0 0 -0 -0 -0 -1 -1 -1 -2 -2 -2 -2 -2 -3 -3 -3 -3 -3 -3 -3 -3 -3 -3
0 0 0 0 0 0 -0 -0 -0 -0 -0 -0 -0 -0 -0 -0 -0 -0 -0 -0 -0 -1 -1 -1 -1 -1 -2 -2 -2 -2 -2 -3 -3 -3 -3 -3 -3 -4 -4 -4 -3 -3 -3
-0 -0 -0 -0 -0 -0 -1 -1 -1 -1 -1 -1 -1 -1 -1 -1 -1 -1 -1 -1 -1 -1 -1 -1 -1 -2 -2 -2 -2 -3 -3 -3 -3 -3 -4 -4 -4 -4 -4 -4 -4 -4 -4
-1 -1 -1 -1 -1 -1 -1 -1 -1 -2 -2 -1 -1 -1 -1 -1 -1 -1 -1 -1 -1 -1 -2 -2 -2 -2 -2 -3 -3 -3 -3 -3 -4 -4 -4 -4 -4 -4 -4 -4 -4 -4 -4
-1 -1 -1 -1 -1 -1 -1 -2 -2 -2 -2 -2 -2 -2 -2 -2 -2 -2 -2 -2 -2 -2 -2 -2 -2 -3 -3 -3 -3 -3 -4 -4 -4 -4 -4 -4 -4 -4 -4 -4 -4 -4 -4
-1 -1 -1 -2 -2 -2 -2 -2 -2 -2 -3 -3 -2 -2 -2 -2 -2 -2 -2 -2 -2 -2 -3 -3 -3 -3 -3 -3 -4 -4 -4 -4 -4 -4 -4 -4 -4 -4 -5 -5 -5 -5 -5
-2 -2 -2 -2 -2 -2 -2 -3 -3 -3 -3 -3 -3 -3 -3 -3 -3 -3 -3 -3 -3 -3 -3 -3 -4 -4 -4 -4 -4 -4 -4 -4 -4 -4 -4 -4 -5 -5 -5 -5 -5 -5 -5
-2 -2 -2 -3 -3 -3 -3 -3 -3 -3 -3 -3 -3 -3 -3 -3 -4 -4 -4 -4 -4 -4 -4 -4 -4 -4 -4 -4 -4 -4 -4 -4 -4 -4 -5 -5 -5 -5 -5 -5 -5 -5 -5
-2 -3 -3 -3 -3 -3 -3 -3 -4 -4 -4 -4 -4 -4 -4 -4 -4 -4 -4 -4 -4 -4 -4 -4 -4 -5 -5 -5 -5 -5 -5 -5 -5 -5 -5 -5 -5 -5 -5 -5 -6 -6 -6
-3 -3 -4 -4 -4 -4 -4 -4 -4 -4 -4 -4 -4 -4 -4 -5 -5 -5 -5 -5 -5 -5 -5 -5 -5 -5 -5 -5 -5 -5 -5 -5 -5 -5 -5 -5 -6 -6 -6 -6 -6 -6 -6
-3 -4 -4 -4 -4 -4 -4 -4 -5 -5 -5 -5 -5 -5 -5 -5 -5 -5 -5 -5 -5 -5 -5 -5 -6 -6 -6 -6 -6 -6 -6 -6 -6 -6 -6 -6 -6 -6 -6 -6 -6 -6 -7
Wind_Speed
4 3 3 3 3 3 3 3 3 3 3 4 4 4 5 5 5 6 6 6 7 6 6 6 6 6 5 4 3 3 2 2 3 1 1 2 2 3 2 3 4 4 4
4 4 3 3 3 3 3 3 2 2 2 3 3 4 5 5 5 6 6 6 7 8 7 7 7 5 6 5 4 4 3 3 3 3 2 2 2 3 2 2 3 4 4
5 4 4 4 4 3 3 3 2 1 2 2 3 4 4 4 4 5 5 6 6 7 7 7 7 7 6 4 4 4 3 3 3 3 3 1 1 2 2 2 2 2 3
5 4 4 5 4 3 3 3 2 2 2 2 2 2 3 3 4 4 4 5 5 5 5 6 7 7 7 6 5 5 4 4 4 4 3 2 2 2 2 2 1 1 1
5 4 4 4 4 3 3 2 2 1 1 2 2 2 2 2 3 3 4 4 5 5 5 5 5 6 7 6 5 5 5 4 4 4 3 2 2 3 3 2 2 2 0
5 5 5 5 4 3 3 2 2 1 1 1 1 1 1 1 2 3 4 4 5 6 6 5 6 6 7 7 7 6 6 5 5 4 3 3 4 4 3 3 3 2 2
5 5 5 5 4 4 3 2 2 1 1 1 1 1 1 2 3 4 5 4 5 6 6 6 5 6 7 6 7 6 4 4 5 4 4 4 4 5 5 4 3 3 2
5 5 5 5 5 4 3 3 2 1 1 1 1 1 1 1 4 5 6 4 4 5 5 7 7 7 7 7 6 5 4 3 2 2 3 3 3 4 5 5 5 3 2
6 6 6 6 5 4 4 3 2 1 1 1 1 1 1 2 4 6 6 4 4 4 5 6 7 7 10 10 7 6 5 3 4 6 6 6 6 6 7 5 5 4 2
6 6 6 6 5 4 4 3 2 1 1 1 1 1 2 3 5 6 6 4 5 4 4 5 7 8 10 10 7 7 6 4 4 4 4 4 4 5 6 5 5 4 2
6 6 6 5 5 4 3 2 2 1 1 1 1 1 1 3 5 6 6 4 5 5 4 4 5 10 10 10 8 6 7 6 5 5 4 3 3 3 3 4 3 3 3
6 6 6 5 5 3 3 2 1 1 1 1 1 1 0 1 3 4 5 5 6 5 4 4 6 11 10 10 7 8 10 8 4 4 4 3 3 3 3 4 5 5 4
6 6 6 5 5 4 3 2 2 1 1 2 1 1 1 1 2 5 5 6 7 4 4 7 9 10 9 7 8 10 8 5 4 4 4 3 3 4 4 4 4 5 6
6 6 5 5 5 4 3 2 2 1 1 2 2 2 2 2 2 3 3 3 5 4 4 7 10 9 6 7 7 5 4 4 5 4 4 3 4 4 4 3 3 3 2
6 6 5 5 4 4 3 3 3 2 2 3 3 3 3 4 5 5 4 4 4 5 5 4 4 4 4 4 4 4 4 4 4 4 4 4 4 4 4 3 3 3 2
5 5 4 4 4 3 3 4 5 4 4 4 3 3 2 3 5 7 7 7 8 10 7 5 5 5 5 5 5 5 4 4 4 4 5 5 5 5 4 4 3 4 4
5 5 4 4 3 3 3 3 4 5 5 4 3 3 2 2 3 4 6 7 9 10 5 5 5 5 5 5 5 5 5 5 5 5 5 5 5 5 5 5 5 4 4
5 5 4 3 3 3 3 3 3 3 4 4 4 3 2 1 2 3 5 5 5 5 3 4 5 5 5 5 5 5 4 5 5 5 5 5 5 5 5 5 5 5 5
4 4 3 3 3 3 3 3 3 3 3 3 3 2 2 1 1 3 4 2 3 3 3 3 3 3 4 4 4 5 5 5 5 5 5 5 5 5 5 5 5 8 6
3 5 4 3 3 3 3 3 3 3 2 2 2 2 1 1 0 1 1 1 2 2 2 3 3 3 3 4 4 4 5 5 5 5 5 5 5 5 6 6 6 6 6
3 4 4 3 3 3 3 3 3 3 2 2 2 2 2 1 1 1 1 2 2 2 3 3 3 3 3 3 4 5 5 5 5 6 6 6 6 6 5 6 6 6 5
3 3 3 3 3 3 3 3 3 3 2 3 2 2 3 1 1 1 1 1 2 2 2 2 3 3 3 4 4 4 5 5 6 6 6 6 6 6 5 6 6 6 5
2 3 3 3 3 4 4 3 2 2 2 2 2 2 2 1 1 1 1 1 1 1 2 2 2 2 2 3 4 4 5 5 5 6 6 6 6 6 6 6 7 7 7
2 2 3 3 2 2 3 3 3 2 2 2 2 2 2 2 2 2 1 1 1 0 1 1 2 2 3 2 3 5 5 6 6 6 7 6 6 6 6 6 6 7 7
2 2 2 2 2 2 3 3 3 2 2 3 2 2 2 2 2 2 1 1 1 1 1 1 1 1 2 3 3 4 6 7 7 7 7 5 6 6 6 6 6 6 6
2 2 2 2 2 2 2 3 3 3 2 2 2 2 2 2 2 2 2 1 1 1 1 2 2 2 3 4 4 5 6 7 8 9 7 5 6 6 6 6 7 7 7
Wind_Direction
341 323 319 306 305 304 290 280 263 242 221 214 220 221 219 219 211 209 206 193 191 187 175 169 166 155 154 148 146 152 168 166 189 145 87 121 126 132 126 118 118 106 105
341 336 326 315 313 307 293 288 274 252 244 223 215 220 222 219 216 211 203 194 189 184 175 164 160 154 151 151 155 166 175 168 169 177 153 134 128 146 141 122 116 114 111
343 347 340 330 328 316 309 308 307 291 281 262 226 220 219 213 213 214 204 197 185 175 168 164 161 158 160 156 156 163 161 148 142 153 152 128 124 144 129 108 112 107 121
342 343 337 327 324 319 314 314 312 307 285 270 255 237 222 212 208 207 195 180 165 154 153 154 156 160 159 154 157 158 151 144 141 145 145 144 140 141 140 157 156 134 134
343 341 330 324 329 334 330 319 312 323 311 282 265 251 236 223 201 186 175 160 148 136 128 128 130 133 140 148 155 156 155 157 156 153 149 143 156 166 185 173 170 148 165
342 335 332 333 331 331 334 332 319 321 321 315 281 242 232 228 166 160 152 143 143 143 139 128 124 126 132 136 139 144 151 159 164 160 164 176 187 184 167 164 149 148 202
340 335 335 334 328 325 327 331 328 320 298 296 307 269 222 159 153 159 146 143 145 149 149 145 143 147 140 136 138 129 118 128 149 158 171 185 180 178 164 163 168 168 192
338 337 337 335 327 327 330 325 319 310 298 274 273 258 181 173 164 162 150 138 139 149 153 154 151 150 152 147 141 132 123 108 121 139 161 165 152 152 163 164 156 124 85
345 344 337 330 322 320 316 311 309 306 303 278 223 209 193 189 174 165 149 133 137 142 142 146 150 150 160 156 143 138 130 122 110 119 121 126 132 145 145 129 133 133 148
344 337 330 326 324 320 314 311 313 305 286 290 284 233 199 192 180 172 159 148 150 147 142 147 158 161 166 163 152 151 157 162 140 120 109 111 119 145 151 150 158 156 149
335 332 333 333 330 326 323 318 317 313 301 258 260 261 207 187 186 186 183 164 164 159 160 162 169 172 171 171 165 162 171 160 146 139 132 122 106 101 94 99 121 149 157
337 335 336 339 338 335 330 318 304 279 256 252 232 254 215 174 186 194 193 181 168 162 167 165 167 170 173 172 167 168 165 154 137 138 139 140 136 127 105 94 92 91 96
340 338 338 343 340 337 332 324 316 295 258 255 235 238 226 187 187 204 202 188 174 163 162 166 167 169 170 168 172 172 162 148 147 155 161 163 149 140 124 109 95 91 79
335 334 336 337 338 341 337 327 306 278 254 247 242 236 228 216 199 198 195 181 169 159 154 166 169 168 161 167 170 165 152 160 162 168 163 152 141 146 156 155 152 146 119
335 337 339 338 338 337 335 330 319 296 277 267 249 226 217 225 220 210 193 179 168 166 150 143 153 155 162 164 160 159 164 167 175 165 163 161 163 168 173 166 163 164 168
335 336 336 334 334 335 336 340 351 334 326 314 294 278 253 242 224 214 206 193 184 175 161 164 175 179 181 181 179 180 182 183 180 173 171 173 176 178 176 173 176 183 191
332 330 329 328 328 330 331 331 333 343 346 338 322 312 286 247 221 213 201 187 184 176 175 178 187 190 189 185 184 185 189 187 179 178 182 181 180 180 180 186 192 196 200
334 330 331 324 323 326 324 318 316 318 327 335 337 327 310 259 229 214 191 170 179 180 179 186 192 192 189 188 188 188 187 182 181 184 185 186 186 187 190 193 196 200 202
329 328 328 326 323 319 317 315 313 311 311 315 326 334 329 284 228 206 180 173 178 182 180 185 188 189 188 188 187 187 187 188 185 186 191 191 192 192 199 200 200 208 208
319 324 330 326 323 322 321 319 318 316 314 312 312 313 323 333 239 202 187 170 180 183 182 189 190 188 187 188 185 184 187 190 191 194 196 196 196 197 203 203 203 206 209
317 322 330 331 327 328 326 322 318 316 313 313 310 306 315 287 244 226 200 191 189 187 188 194 194 193 193 191 189 189 192 197 197 199 200 201 200 203 205 206 208 208 207
322 322 322 317 320 323 322 319 317 313 309 311 318 321 324 341 299 256 221 211 201 190 187 191 200 200 197 195 197 199 203 203 201 200 202 203 204 204 204 206 207 205 203
319 320 320 319 319 320 324 321 318 315 315 314 315 323 329 321 306 293 267 242 218 208 196 194 201 205 201 204 203 203 207 208 203 198 201 202 203 206 207 209 208 205 207
313 314 313 314 314 314 315 316 316 315 316 315 315 316 317 315 314 311 308 314 307 270 224 201 204 206 205 210 214 216 220 218 208 205 201 203 204 206 207 209 210 210 209
298 302 303 301 303 305 309 312 313 315 317 317 317 319 322 322 322 324 329 334 328 314 306 291 257 231 221 223 226 229 228 221 213 208 205 207 208 206 206 208 209 208 209
283 289 292 297 300 304 305 304 306 309 309 310 312 311 310 306 303 309 316 317 308 295 288 289 278 267 259 250 240 235 237 233 226 218 210 208 209 211 208 211 208 208 208
Height
1460 1460 1460 1460 1460 1461 1461 1461 1461 1461 1462 1462 1463 1464 1465 1465 1466 1468 1469 1470 1472 1473 1475 1477 1479 1481 1482 1484 1487 1489 1490 1492 1492 1493 1494 1495 1496 1497 1498 1498 1498 1498 1499
1459 1458 1458 1458 1458 1458 1457 1457 1457 1457 1457 1457 1458 1459 1460 1460 1461 1462 1463 1464 1465 1467 1469 1471 1473 1475 1476 1479 1481 1483 1485 1486 1488 1488 1489 1491 1492 1493 1494 1494 1494 1495 1496
1457 1456 1456 1455 1455 1454 1454 1453 1453 1453 1453 1453 1454 1454 1455 1455 1456 1457 1458 1459 1460 1462 1464 1466 1468 1470 1472 1474 1476 1478 1480 1481 1482 1484 1484 1486 1487 1488 1489 1490 1491 1492 1493
1455 1454 1453 1453 1453 1452 1451 1450 1450 1449 1449 1449 1450 1450 1450 1451 1451 1452 1453 1454 1455 1457 1459 1461 1463 1466 1468 1470 1472 1473 1475 1476 1478 1479 1480 1481 1483 1484 1486 1487 1488 1489 1490
1452 1452 1451 1450 1449 1448 1448 1447 1447 1446 1446 1446 1446 1446 1446 1447 1447 1448 1449 1450 1451 1453 1455 1457 1459 1461 1463 1465 1468 1469 1471 1472 1474 1475 1476 1477 1479 1480 1482 1483 1484 1485 1486
1451 1449 1448 1447 1446 1445 1444 1444 1443 1442 1442 1442 1442 1442 1442 1442 1443 1444 1445 1446 1447 1449 1451 1453 1455 1458 1459 1461 1464 1465 1467 1469 1469 1471 1472 1473 1475 1476 1478 1480 1481 1482 1483
1449 1447 1446 1444 1443 1442 1441 1440 1439 1439 1439 1438 1438 1438 1438 1439 1439 1440 1441 1443 1443 1445 1448 1449 1452 1454 1456 1458 1460 1462 1463 1465 1466 1468 1469 1470 1471 1473 1475 1476 1477 1479 1480
1447 1445 1444 1442 1440 1439 1438 1437 1436 1436 1435 1435 1434 1435 1435 1435 1436 1437 1438 1439 1440 1442 1445 1446 1449 1450 1453 1454 1456 1458 1460 1461 1462 1464 1465 1466 1468 1469 1471 1473 1474 1476 1477
1446 1444 1442 1440 1438 1436 1435 1434 1434 1433 1433 1432 1432 1432 1432 1433 1434 1434 1436 1436 1438 1439 1441 1444 1446 1447 1449 1451 1453 1454 1456 1458 1459 1460 1462 1463 1464 1466 1468 1469 1471 1472 1473
1444 1442 1440 1438 1436 1434 1433 1432 1431 1431 1430 1429 1429 1429 1430 1430 1431 1432 1433 1434 1435 1437 1439 1440 1443 1444 1446 1448 1450 1451 1453 1454 1456 1457 1458 1460 1461 1463 1464 1466 1468 1469 1470
1441 1439 1437 1435 1434 1432 1430 1429 1428 1428 1427 1427 1427 1427 1427 1428 1428 1429 1430 1431 1433 1434 1436 1437 1439 1441 1443 1445 1446 1448 1450 1451 1453 1454 1455 1457 1458 1460 1462 1463 1465 1466 1468
1440 1437 1435 1433 1432 1430 1428 1427 1426 1425 1425 1424 1424 1424 1424 1425 1426 1427 1428 1429 1430 1432 1433 1435 1436 1438 1440 1442 1443 1445 1447 1448 1450 1451 1453 1454 1456 1457 1459 1460 1462 1463 1465
1438 1435 1433 1432 1430 1428 1426 1425 1424 1423 1422 1422 1422 1422 1422 1423 1424 1425 1425 1426 1427 1429 1430 1432 1434 1435 1437 1439 1441 1442 1444 1445 1447 1449 1450 1452 1453 1455 1456 1457 1459 1460 1462
1436 1434 1432 1430 1428 1426 1425 1423 1422 1421 1420 1420 1420 1420 1420 1420 1421 1422 1422 1423 1425 1426 1428 1430 1431 1433 1434 1436 1438 1439 1441 1443 1444 1446 1448 1449 1450 1452 1453 1455 1456 1457 1459
1434 1432 1430 1429 1427 1425 1423 1422 1420 1419 1419 1418 1417 1417 1418 1418 1419 1419 1420 1421 1422 1424 1425 1427 1428 1430 1431 1433 1435 1436 1438 1440 1441 1443 1445 1446 1447 1449 1450 1451 1453 1454 1456
1433 1431 1429 1427 1425 1423 1422 1420 1419 1418 1417 1416 1416 1416 1415 1416 1416 1417 1418 1419 1420 1421 1423 1424 1425 1427 1428 1430 1432 1433 1435 1437 1438 1440 1441 1443 1444 1445 1447 1448 1450 1451 1453
1431 1429 1427 1426 1424 1422 1420 1418 1416 1416 1415 1414 1413 1413 1413 1413 1413 1414 1415 1416 1417 1419 1420 1421 1422 1424 1425 1427 1429 1430 1432 1434 1435 1436 1438 1439 1441 1442 1443 1445 1446 1448 1449
1430 1428 1426 1424 1422 1420 1419 1417 1415 1414 1412 1411 1411 1411 1411 1410 1411 1411 1412 1413 1414 1415 1417 1418 1419 1420 1422 1423 1425 1427 1429 1430 1431 1433 1434 1436 1437 1438 1440 1441 1443 1444 1446
1427 1426 1424 1422 1421 1419 1417 1415 1414 1412 1411 1410 1409 1409 1408 1408 1408 1409 1410 1410 1411 1412 1413 1414 1416 1417 1419 1420 1422 1423 1425 1426 1427 1429 1430 1431 1433 1434 1436 1437 1439 1440 1442
1425 1424 1422 1420 1419 1417 1415 1414 1412 1411 1409 1408 1407 1406 1406 1406 1406 1406 1407 1408 1409 1409 1410 1411 1412 1414 1415 1416 1418 1419 1420 1422 1423 1424 1426 1427 1429 1430 1432 1433 1435 1436 1438
1423 1421 1420 1418 1417 1415 1414 1412 1411 1409 1408 1406 1406 1405 1404 1404 1404 1404 1405 1405 1406 1407 1407 1408 1409 1410 1411 1413 1414 1415 1416 1417 1418 1420 1421 1423 1424 1426 1427 1429 1430 1432 1433
1420 1419 1418 1416 1415 1413 1412 1411 1409 1408 1406 1405 1404 1404 1403 1402 1402 1402 1402 1403 1403 1404 1405 1405 1406 1407 1408 1409 1410 1411 1412 1413 1414 1416 1417 1418 1420 1421 1422 1424 1426 1427 1429
1418 1416 1415 1414 1412 1411 1410 1409 1407 1406 1405 1404 1403 1402 1401 1401 1400 1400 1400 1400 1401 1401 1401 1402 1402 1403 1404 1404 1405 1407 1408 1409 1410 1412 1413 1414 1415 1416 1418 1419 1421 1422 1424
1415 1414 1413 1411 1410 1409 1408 1406 1405 1404 1403 1402 1401 1400 1399 1399 1399 1398 1398 1398 1398 1398 1398 1398 1399 1399 1400 1400 1401 1402 1403 1404 1406 1407 1408 1409 1410 1412 1413 1414 1416 1417 1419
1412 1411 1410 1409 1408 1407 1405 1404 1403 1402 1401 1400 1399 1398 1397 1396 1396 1395 1395 1395 1395 1395 1395 1395 1395 1396 1396 1397 1397 1398 1399 1400 1401 1402 1403 1404 1406 1407 1408 1409 1411 1412 1414
1409 1408 1407 1406 1405 1404 1403 1402 1401 1399 1398 1397 1396 1395 1395 1394 1393 1393 1392 1392 1391 1391 1391 1391 1391 1392 1392 1393 1393 1394 1394 1395 1396 1397 1398 1399 1400 1401 1403 1404 1406 1407 1408